Time,TemperatureF,DewpointF,PressureIn,WindDirection,WindDirectionDegrees,WindSpeedMPH,WindSpeedGustMPH,Humidity,HourlyPrecipIn,Conditions,Clouds,dailyrainin,SoftwareType,DateUTC
2013-05-21 00:05:00,158.0,0.0,29.96,SE,139,7.0,10.0,0,0.00,,---,0.00,VWS V14.00,2013-05-21 05:05:00,
2013-05-21 00:15:00,158.0,0.0,29.95,SE,146,8.0,12.0,0,0.00,,---,0.00,VWS V14.00,2013-05-21 05:15:00,
2013-05-21 00:25:00,158.0,0.0,29.95,SSE,163,12.0,15.0,0,0.00,,---,0.00,VWS V14.00,2013-05-21 05:25:00,
2013-05-21 00:35:00,158.0,0.0,29.95,SSE,165,13.0,14.0,0,0.00,,---,0.00,VWS V14.00,2013-05-21 05:35:00,
2013-05-21 00:45:00,158.0,0.0,29.95,SSE,165,14.0,15.0,0,0.00,,---,0.00,VWS V14.00,2013-05-21 05:45:00,
2013-05-21 00:55:00,158.0,0.0,29.95,SE,143,8.0,16.0,0,0.00,,---,0.00,VWS V14.00,2013-05-21 05:55:00,
2013-05-21 01:05:00,158.0,0.0,29.94,SE,138,8.0,12.0,0,0.00,,---,0.00,VWS V14.00,2013-05-21 06:05:00,
2013-05-21 01:15:00,158.0,0.0,29.94,SE,132,6.0,10.0,0,0.00,,---,0.00,VWS V14.00,2013-05-21 06:15:00,
2013-05-21 01:25:00,158.0,0.0,29.94,SE,137,9.0,10.0,0,0.00,,---,0.00,VWS V14.00,2013-05-21 06:25:00,
2013-05-21 01:35:00,158.0,0.0,29.93,SE,139,9.0,10.0,0,0.00,,---,0.00,VWS V14.00,2013-05-21 06:35:00,
2013-05-21 01:45:00,158.0,0.0,29.93,SE,138,7.0,10.0,0,0.00,,---,0.00,VWS V14.00,2013-05-21 06:45:00,
2013-05-21 01:55:00,158.0,0.0,29.93,SE,136,7.0,10.0,0,0.00,,---,0.00,VWS V14.00,2013-05-21 06:55:00,
2013-05-21 02:05:00,158.0,0.0,29.93,SE,132,6.0,10.0,0,0.00,,---,0.00,VWS V14.00,2013-05-21 07:05:00,
2013-05-21 02:15:00,158.0,0.0,29.93,SE,139,6.0,9.0,0,0.00,,---,0.00,VWS V14.00,2013-05-21 07:15:00,
2013-05-21 02:25:00,158.0,0.0,29.93,SE,138,6.0,9.0,0,0.00,,---,0.00,VWS V14.00,2013-05-21 07:25:00,
2013-05-21 02:35:00,158.0,0.0,29.92,SE,132,5.0,8.0,0,0.00,,---,0.00,VWS V14.00,2013-05-21 07:35:00,
2013-05-21 02:45:00,158.0,0.0,29.92,ESE,120,5.0,7.0,0,0.00,,---,0.00,VWS V14.00,2013-05-21 07:45:00,
2013-05-21 02:55:00,158.0,0.0,29.92,SE,130,5.0,7.0,0,0.00,,---,0.00,VWS V14.00,2013-05-21 07:55:00,
2013-05-21 03:05:00,158.0,0.0,29.92,SE,134,5.0,7.0,0,0.00,,---,0.00,VWS V14.00,2013-05-21 08:05:00,
2013-05-21 03:15:00,158.0,0.0,29.92,SE,136,9.0,9.0,0,0.00,,---,0.00,VWS V14.00,2013-05-21 08:15:00,
2013-05-21 03:25:00,158.0,0.0,29.91,SE,139,6.0,9.0,0,0.00,,---,0.00,VWS V14.00,2013-05-21 08:25:00,
2013-05-21 03:35:00,158.0,0.0,29.91,SE,140,6.0,9.0,0,0.00,,---,0.00,VWS V14.00,2013-05-21 08:35:00,
2013-05-21 03:45:00,158.0,0.0,29.91,SSE,168,13.0,13.0,0,0.00,,---,0.00,VWS V14.00,2013-05-21 08:45:00,
2013-05-21 03:55:00,158.0,0.0,29.91,South,172,11.0,14.0,0,0.00,,---,0.00,VWS V14.00,2013-05-21 08:55:00,
2013-05-21 04:05:00,158.0,0.0,29.91,SSE,167,11.0,16.0,0,0.00,,---,0.00,VWS V14.00,2013-05-21 09:05:00,
2013-05-21 04:15:00,158.0,0.0,29.91,South,171,11.0,14.0,0,0.00,,---,0.00,VWS V14.00,2013-05-21 09:15:00,
2013-05-21 04:25:00,158.0,0.0,29.91,South,172,12.0,14.0,0,0.00,,---,0.00,VWS V14.00,2013-05-21 09:25:00,
2013-05-21 04:35:00,158.0,0.0,29.91,South,172,13.0,15.0,0,0.00,,---,0.00,VWS V14.00,2013-05-21 09:35:00,
2013-05-21 04:45:00,158.0,0.0,29.92,South,177,12.0,14.0,0,0.00,,---,0.00,VWS V14.00,2013-05-21 09:45:00,
2013-05-21 04:55:00,158.0,0.0,29.92,South,169,12.0,14.0,0,0.00,,---,0.00,VWS V14.00,2013-05-21 09:55:00,
2013-05-21 05:05:00,158.0,0.0,29.92,SSE,159,11.0,15.0,0,0.00,,---,0.00,VWS V14.00,2013-05-21 10:05:00,
2013-05-21 05:15:00,158.0,0.0,29.92,SSE,156,11.0,14.0,0,0.00,,---,0.00,VWS V14.00,2013-05-21 10:15:00,
2013-05-21 05:25:00,158.0,0.0,29.91,SE,133,5.0,14.0,0,0.00,,---,0.00,VWS V14.00,2013-05-21 10:25:00,
2013-05-21 05:35:00,158.0,0.0,29.92,SE,134,5.0,7.0,0,0.00,,---,0.00,VWS V14.00,2013-05-21 10:35:00,
2013-05-21 05:45:00,158.0,0.0,29.92,SE,136,6.0,7.0,0,0.00,,---,0.00,VWS V14.00,2013-05-21 10:45:00,
2013-05-21 05:55:00,158.0,0.0,29.92,SE,141,6.0,7.0,0,0.00,,---,0.00,VWS V14.00,2013-05-21 10:55:00,
2013-05-21 06:05:00,158.0,0.0,29.93,SE,131,4.0,9.0,0,0.00,,---,0.00,VWS V14.00,2013-05-21 11:05:00,
2013-05-21 06:15:00,158.0,0.0,29.93,SE,129,6.0,7.0,0,0.00,,---,0.00,VWS V14.00,2013-05-21 11:15:00,
2013-05-21 06:25:00,158.0,0.0,29.93,SE,127,5.0,6.0,0,0.00,,---,0.00,VWS V14.00,2013-05-21 11:25:00,
2013-05-21 06:35:00,158.0,0.0,29.94,SE,138,5.0,6.0,0,0.00,,---,0.00,VWS V14.00,2013-05-21 11:35:00,
2013-05-21 06:45:00,158.0,0.0,29.94,SE,138,4.0,5.0,0,0.00,,---,0.00,VWS V14.00,2013-05-21 11:45:00,
2013-05-21 06:55:00,158.0,0.0,29.94,SE,146,4.0,8.0,0,0.00,,---,0.00,VWS V14.00,2013-05-21 11:55:00,
2013-05-21 07:05:00,158.0,0.0,29.95,SE,132,5.0,7.0,0,0.00,,---,0.00,VWS V14.00,2013-05-21 12:05:00,
2013-05-21 07:15:00,158.0,0.0,29.95,SE,132,5.0,7.0,0,0.00,,---,0.00,VWS V14.00,2013-05-21 12:15:00,
2013-05-21 07:25:00,158.0,0.0,29.95,SE,133,5.0,7.0,0,0.00,,---,0.00,VWS V14.00,2013-05-21 12:25:00,
2013-05-21 07:35:00,158.0,0.0,29.95,SE,132,4.0,6.0,0,0.00,,---,0.00,VWS V14.00,2013-05-21 12:35:00,
2013-05-21 07:45:00,158.0,0.0,29.95,SE,132,4.0,6.0,0,0.00,,---,0.00,VWS V14.00,2013-05-21 12:45:00,
2013-05-21 07:55:00,158.0,0.0,29.95,SE,140,4.0,6.0,0,0.00,,---,0.00,VWS V14.00,2013-05-21 12:55:00,
2013-05-21 08:05:00,158.0,0.0,29.96,SSE,165,5.0,7.0,0,0.00,,---,0.00,VWS V14.00,2013-05-21 13:05:00,
2013-05-21 08:15:00,158.0,0.0,29.96,South,170,6.0,9.0,0,0.00,,---,0.00,VWS V14.00,2013-05-21 13:15:00,
2013-05-21 08:25:00,158.0,0.0,29.96,SSE,159,10.0,11.0,0,0.00,,---,0.00,VWS V14.00,2013-05-21 13:25:00,
2013-05-21 08:35:00,158.0,0.0,29.96,SSE,161,9.0,10.0,0,0.00,,---,0.00,VWS V14.00,2013-05-21 13:35:00,
2013-05-21 08:45:00,158.0,0.0,29.96,SSE,162,9.0,10.0,0,0.00,,---,0.00,VWS V14.00,2013-05-21 13:45:00,
2013-05-21 08:55:00,158.0,0.0,29.97,SSE,168,6.0,9.0,0,0.00,,---,0.00,VWS V14.00,2013-05-21 13:55:00,
2013-05-21 09:15:00,158.0,0.0,29.96,South,174,6.0,7.0,0,0.00,,---,0.00,VWS V14.00,2013-05-21 14:15:00,
2013-05-21 09:25:00,158.0,0.0,29.96,South,173,7.0,7.0,0,0.00,,---,0.00,VWS V14.00,2013-05-21 14:25:00,
2013-05-21 09:35:00,158.0,0.0,29.96,South,177,6.0,7.0,0,0.00,,---,0.00,VWS V14.00,2013-05-21 14:35:00,
2013-05-21 09:45:00,158.0,0.0,29.96,South,179,7.0,7.0,0,0.00,,---,0.00,VWS V14.00,2013-05-21 14:45:00,
2013-05-21 09:55:00,158.0,0.0,29.95,South,190,7.0,10.0,0,0.00,,---,0.00,VWS V14.00,2013-05-21 14:55:00,
2013-05-21 10:05:00,158.0,0.0,29.96,South,189,11.0,11.0,0,0.00,,---,0.00,VWS V14.00,2013-05-21 15:05:00,
2013-05-21 10:15:00,158.0,0.0,29.96,South,190,11.0,12.0,0,0.00,,---,0.00,VWS V14.00,2013-05-21 15:15:00,
2013-05-21 10:25:00,158.0,0.0,29.96,South,190,11.0,12.0,0,0.00,,---,0.00,VWS V14.00,2013-05-21 15:25:00,
2013-05-21 10:35:00,158.0,0.0,29.96,SSW,196,14.0,14.0,0,0.00,,---,0.00,VWS V14.00,2013-05-21 15:35:00,
2013-05-21 10:45:00,158.0,0.0,29.96,South,180,12.0,15.0,0,0.00,,---,0.00,VWS V14.00,2013-05-21 15:45:00,
2013-05-21 10:55:00,158.0,0.0,29.96,South,180,13.0,15.0,0,0.00,,---,0.00,VWS V14.00,2013-05-21 15:55:00,
2013-05-21 11:05:00,158.0,0.0,29.96,South,183,14.0,15.0,0,0.00,,---,0.00,VWS V14.00,2013-05-21 16:05:00,
2013-05-21 11:15:00,158.0,0.0,29.97,South,177,14.0,16.0,0,0.00,,---,0.00,VWS V14.00,2013-05-21 16:15:00,
2013-05-21 11:25:00,158.0,0.0,29.97,South,185,14.0,17.0,0,0.00,,---,0.00,VWS V14.00,2013-05-21 16:25:00,
2013-05-21 11:35:00,158.0,0.0,29.96,South,180,12.0,16.0,0,0.00,,---,0.00,VWS V14.00,2013-05-21 16:35:00,
2013-05-21 11:45:00,158.0,0.0,29.96,South,178,13.0,13.0,0,0.00,,---,0.00,VWS V14.00,2013-05-21 16:45:00,
2013-05-21 11:55:00,158.0,0.0,29.96,South,177,9.0,14.0,0,0.00,,---,0.00,VWS V14.00,2013-05-21 16:55:00,
2013-05-21 12:05:00,158.0,0.0,29.96,South,188,14.0,16.0,0,0.00,,---,0.00,VWS V14.00,2013-05-21 17:05:00,
2013-05-21 12:15:00,158.0,0.0,29.96,SSW,194,13.0,16.0,0,0.00,,---,0.00,VWS V14.00,2013-05-21 17:15:00,
2013-05-21 12:25:00,158.0,0.0,29.95,South,184,13.0,17.0,0,0.00,,---,0.00,VWS V14.00,2013-05-21 17:25:00,
2013-05-21 12:35:00,158.0,0.0,29.95,South,184,14.0,16.0,0,0.00,,---,0.00,VWS V14.00,2013-05-21 17:35:00,
2013-05-21 12:45:00,158.0,0.0,29.95,South,180,12.0,16.0,0,0.00,,---,0.00,VWS V14.00,2013-05-21 17:45:00,
2013-05-21 12:55:00,158.0,0.0,29.95,South,184,15.0,18.0,0,0.00,,---,0.00,VWS V14.00,2013-05-21 17:55:00,
2013-05-21 13:05:00,158.0,0.0,29.95,South,188,14.0,18.0,0,0.00,,---,0.00,VWS V14.00,2013-05-21 18:05:00,
2013-05-21 13:15:00,158.0,0.0,29.95,South,180,15.0,17.0,0,0.00,,---,0.00,VWS V14.00,2013-05-21 18:15:00,
2013-05-21 13:25:00,158.0,0.0,29.94,South,178,13.0,17.0,0,0.00,,---,0.00,VWS V14.00,2013-05-21 18:25:00,
2013-05-21 13:35:00,158.0,0.0,29.94,South,171,12.0,16.0,0,0.00,,---,0.00,VWS V14.00,2013-05-21 18:35:00,
2013-05-21 13:45:00,158.0,0.0,29.94,South,173,12.0,18.0,0,0.00,,---,0.00,VWS V14.00,2013-05-21 18:45:00,
2013-05-21 13:55:00,158.0,0.0,29.94,South,175,16.0,17.0,0,0.00,,---,0.00,VWS V14.00,2013-05-21 18:55:00,
2013-05-21 14:05:00,158.0,0.0,29.93,South,171,15.0,17.0,0,0.00,,---,0.00,VWS V14.00,2013-05-21 19:05:00,
2013-05-21 14:15:00,158.0,0.0,29.93,South,183,14.0,18.0,0,0.00,,---,0.00,VWS V14.00,2013-05-21 19:15:00,
2013-05-21 14:25:00,158.0,0.0,29.93,South,175,13.0,19.0,0,0.00,,---,0.00,VWS V14.00,2013-05-21 19:25:00,
2013-05-21 14:35:00,158.0,0.0,29.93,South,174,15.0,17.0,0,0.00,,---,0.00,VWS V14.00,2013-05-21 19:35:00,
2013-05-21 14:45:00,158.0,0.0,29.92,South,172,13.0,18.0,0,0.00,,---,0.00,VWS V14.00,2013-05-21 19:45:00,
2013-05-21 14:55:00,158.0,0.0,29.92,South,173,13.0,17.0,0,0.00,,---,0.00,VWS V14.00,2013-05-21 19:55:00,
2013-05-21 15:05:00,158.0,0.0,29.92,South,182,12.0,15.0,0,0.00,,---,0.00,VWS V14.00,2013-05-21 20:05:00,
2013-05-21 15:15:00,158.0,0.0,29.91,South,177,14.0,15.0,0,0.00,,---,0.00,VWS V14.00,2013-05-21 20:15:00,
2013-05-21 15:25:00,158.0,0.0,29.91,South,173,14.0,16.0,0,0.00,,---,0.00,VWS V14.00,2013-05-21 20:25:00,
2013-05-21 15:35:00,158.0,0.0,29.90,South,180,15.0,17.0,0,0.00,,---,0.00,VWS V14.00,2013-05-21 20:35:00,
2013-05-21 15:45:00,158.0,0.0,29.91,South,176,12.0,16.0,0,0.00,,---,0.00,VWS V14.00,2013-05-21 20:45:00,
2013-05-21 15:55:00,158.0,0.0,29.90,South,181,11.0,16.0,0,0.00,,---,0.00,VWS V14.00,2013-05-21 20:55:00,
2013-05-21 16:05:00,158.0,0.0,29.89,South,178,16.0,16.0,0,0.00,,---,0.00,VWS V14.00,2013-05-21 21:05:00,
2013-05-21 16:15:00,158.0,0.0,29.89,South,174,12.0,16.0,0,0.00,,---,0.00,VWS V14.00,2013-05-21 21:15:00,
2013-05-21 16:25:00,158.0,0.0,29.89,South,177,17.0,17.0,0,0.00,,---,0.00,VWS V14.00,2013-05-21 21:25:00,
2013-05-21 16:35:00,158.0,0.0,29.88,South,172,18.0,19.0,0,0.00,,---,0.00,VWS V14.00,2013-05-21 21:35:00,
2013-05-21 16:45:00,158.0,0.0,29.89,South,174,13.0,18.0,0,0.00,,---,0.00,VWS V14.00,2013-05-21 21:45:00,
2013-05-21 16:55:00,158.0,0.0,29.88,South,172,16.0,18.0,0,0.00,,---,0.00,VWS V14.00,2013-05-21 21:55:00,
2013-05-21 17:05:00,158.0,0.0,29.88,South,169,14.0,17.0,0,0.00,,---,0.00,VWS V14.00,2013-05-21 22:05:00,
2013-05-21 17:15:00,158.0,0.0,29.88,SSE,167,16.0,17.0,0,0.00,,---,0.00,VWS V14.00,2013-05-21 22:15:00,
2013-05-21 17:25:00,158.0,0.0,29.88,South,171,14.0,17.0,0,0.00,,---,0.00,VWS V14.00,2013-05-21 22:25:00,
2013-05-21 17:35:00,158.0,0.0,29.88,SSE,163,15.0,18.0,0,0.00,,---,0.00,VWS V14.00,2013-05-21 22:35:00,
2013-05-21 17:45:00,158.0,0.0,29.88,SSE,167,15.0,18.0,0,0.00,,---,0.00,VWS V14.00,2013-05-21 22:45:00,
2013-05-21 17:55:00,158.0,0.0,29.88,South,173,12.0,18.0,0,0.00,,---,0.00,VWS V14.00,2013-05-21 22:55:00,
2013-05-21 18:05:00,158.0,0.0,29.87,SSE,163,17.0,18.0,0,0.00,,---,0.00,VWS V14.00,2013-05-21 23:05:00,
2013-05-21 18:15:00,158.0,0.0,29.87,SSE,165,14.0,19.0,0,0.00,,---,0.00,VWS V14.00,2013-05-21 23:15:00,
2013-05-21 18:25:00,158.0,0.0,29.86,South,169,15.0,19.0,0,0.00,,---,0.00,VWS V14.00,2013-05-21 23:25:00,
2013-05-21 18:35:00,158.0,0.0,29.86,SSE,165,14.0,19.0,0,0.00,,---,0.00,VWS V14.00,2013-05-21 23:35:00,
2013-05-21 18:45:00,158.0,0.0,29.86,SSE,149,14.0,20.0,0,0.00,,---,0.00,VWS V14.00,2013-05-21 23:45:00,
2013-05-21 18:55:00,158.0,0.0,29.86,SE,142,16.0,19.0,0,0.00,,---,0.00,VWS V14.00,2013-05-21 23:55:00,
2013-05-21 19:05:00,158.0,0.0,29.86,SE,145,15.0,18.0,0,0.00,,---,0.00,VWS V14.00,2013-05-22 00:05:00,
2013-05-21 19:15:00,158.0,0.0,29.86,SE,135,15.0,19.0,0,0.00,,---,0.00,VWS V14.00,2013-05-22 00:15:00,
2013-05-21 19:25:00,158.0,0.0,29.85,SE,140,14.0,17.0,0,0.00,,---,0.00,VWS V14.00,2013-05-22 00:25:00,
2013-05-21 19:35:00,158.0,0.0,29.86,SSE,148,14.0,16.0,0,0.00,,---,0.00,VWS V14.00,2013-05-22 00:35:00,
2013-05-21 19:45:00,158.0,0.0,29.86,SSE,148,14.0,16.0,0,0.00,,---,0.00,VWS V14.00,2013-05-22 00:45:00,
2013-05-21 19:55:00,158.0,0.0,29.86,SE,144,12.0,19.0,0,0.00,,---,0.00,VWS V14.00,2013-05-22 00:55:00,
2013-05-21 20:05:00,158.0,0.0,29.86,SE,135,11.0,14.0,0,0.00,,---,0.00,VWS V14.00,2013-05-22 01:05:00,
2013-05-21 20:15:00,158.0,0.0,29.86,SE,144,11.0,15.0,0,0.00,,---,0.00,VWS V14.00,2013-05-22 01:15:00,
2013-05-21 20:25:00,158.0,0.0,29.86,SE,143,15.0,16.0,0,0.00,,---,0.00,VWS V14.00,2013-05-22 01:25:00,
2013-05-21 20:35:00,158.0,0.0,29.86,SSE,148,14.0,17.0,0,0.00,,---,0.00,VWS V14.00,2013-05-22 01:35:00,
2013-05-21 20:45:00,158.0,0.0,29.87,SE,142,12.0,16.0,0,0.00,,---,0.00,VWS V14.00,2013-05-22 01:45:00,
2013-05-21 20:55:00,158.0,0.0,29.87,SE,142,12.0,15.0,0,0.00,,---,0.00,VWS V14.00,2013-05-22 01:55:00,
2013-05-21 21:05:00,158.0,0.0,29.88,SE,136,11.0,15.0,0,0.00,,---,0.00,VWS V14.00,2013-05-22 02:05:00,
2013-05-21 21:15:00,158.0,0.0,29.88,SE,142,9.0,13.0,0,0.00,,---,0.00,VWS V14.00,2013-05-22 02:15:00,
2013-05-21 21:25:00,158.0,0.0,29.88,SE,142,11.0,14.0,0,0.00,,---,0.00,VWS V14.00,2013-05-22 02:25:00,
2013-05-21 21:35:00,158.0,0.0,29.88,SE,130,10.0,13.0,0,0.00,,---,0.00,VWS V14.00,2013-05-22 02:35:00,
2013-05-21 21:45:00,158.0,0.0,29.89,SE,138,10.0,13.0,0,0.00,,---,0.00,VWS V14.00,2013-05-22 02:45:00,
2013-05-21 21:55:00,158.0,0.0,29.89,SE,140,11.0,12.0,0,0.00,,---,0.00,VWS V14.00,2013-05-22 02:55:00,
2013-05-21 22:05:00,158.0,0.0,29.90,SE,136,9.0,12.0,0,0.00,,---,0.00,VWS V14.00,2013-05-22 03:05:00,
2013-05-21 22:15:00,158.0,0.0,29.90,SE,144,11.0,13.0,0,0.00,,---,0.00,VWS V14.00,2013-05-22 03:15:00,
2013-05-21 22:25:00,158.0,0.0,29.90,SE,133,7.0,11.0,0,0.00,,---,0.00,VWS V14.00,2013-05-22 03:25:00,
2013-05-21 22:35:00,158.0,0.0,29.90,SE,136,7.0,10.0,0,0.00,,---,0.00,VWS V14.00,2013-05-22 03:35:00,
2013-05-21 22:45:00,158.0,0.0,29.91,SE,136,6.0,7.0,0,0.00,,---,0.00,VWS V14.00,2013-05-22 03:45:00,
2013-05-21 22:55:00,158.0,0.0,29.91,SE,127,5.0,9.0,0,0.00,,---,0.00,VWS V14.00,2013-05-22 03:55:00,
2013-05-21 23:05:00,158.0,0.0,29.91,ESE,111,4.0,6.0,0,0.00,,---,0.00,VWS V14.00,2013-05-22 04:05:00,
2013-05-21 23:15:00,158.0,0.0,29.91,ESE,112,5.0,6.0,0,0.00,,---,0.00,VWS V14.00,2013-05-22 04:15:00,
2013-05-21 23:25:00,158.0,0.0,29.91,ESE,116,3.0,6.0,0,0.00,,---,0.00,VWS V14.00,2013-05-22 04:25:00,
2013-05-21 23:35:00,158.0,0.0,29.91,SE,126,3.0,5.0,0,0.00,,---,0.00,VWS V14.00,2013-05-22 04:35:00,
2013-05-21 23:45:00,158.0,0.0,29.92,SE,126,5.0,6.0,0,0.00,,---,0.00,VWS V14.00,2013-05-22 04:45:00,
2013-05-21 23:55:00,158.0,0.0,29.91,ESE,114,4.0,7.0,0,0.00,,---,0.00,VWS V14.00,2013-05-22 04:55:00,